Location: Vihti�l�
(61.3833°N, 23.0667°E)
Time: 05:26:50
(UTC+00:00)

DMSP B5D2-2 - Pass Details

Date: 29 November 2020
Orbit: 790 x 805 km, 98.3° (Epoch: 22 January)

Event Time Altitude Azimuth Distance (km) Brightness Sun altitude
Rises 05:26:59 0° 180° (S) 3,291 7.6 -10.8°
Reaches altitude 10° 05:29:24 10° 186° (S) 2,363 6.8 -10.5°
Maximum altitude 05:34:26 48° 261° (W) 1,032 4.4 -10.0°
Drops below altitude 10° 05:39:31 10° 336° (NNW) 2,373 6.1 -9.4°
Enters shadow 05:41:13 - 340° (NNW) 3,023 6.6 -9.3°
